FW8022 Weather Reports


Display with metric or nautical units.
time (UTC)temp
F
wind
direction
speed
MPH
gust
MPH
rain 1hr
in
rain 24hr
in
rain mn
in
humidity
%
barometer
mb
20260509173047 53 297 2.0 5.0 0.00 0.00 0.00 91 1015.6
20260509172536 53 286 2.0 4.0 0.00 0.00 0.00 92 1015.5
20260509172036 53 250 2.0 4.0 0.00 0.00 0.00 91 1015.5
20260509171544 53 238 2.0 4.0 0.00 0.00 0.00 92 1015.5
20260509171032 52 247 2.0 6.0 0.00 0.00 0.00 91 1015.5
20260509170536 52 263 2.0 6.0 0.00 0.00 0.00 91 1015.5
20260509170043 52 263 2.0 4.0 0.00 0.00 0.00 91 1015.5
20260509165533 52 272 2.0 4.0 0.00 0.00 0.00 91 1015.6
20260509165037 52 316 1.0 5.0 0.00 0.00 0.00 91 1015.5
20260509164541 52 238 2.0 5.0 0.00 0.00 0.00 91 1015.5
20260509164038 52 257 2.0 6.0 0.00 0.00 0.00 90 1015.4
20260509163536 52 247 3.0 7.0 0.00 0.00 0.00 91 1015.4
20260509163045 52 224 4.0 7.0 0.00 0.00 0.00 90 1015.4
20260509162540 52 249 3.0 7.0 0.00 0.00 0.00 90 1015.3
20260509162037 53 233 3.0 7.0 0.00 0.00 0.00 90 1015.2
20260509161544 53 238 3.0 7.0 0.00 0.00 0.00 90 1015.2
20260509161035 54 238 3.0 7.0 0.00 0.00 0.00 90 1015.2
20260509160536 53 212 3.0 7.0 0.00 0.00 0.00 91 1015.0
20260509160048 54 238 3.0 7.0 0.00 0.00 0.00 91 1015.1
20260509155541 53 205 4.0 7.0 0.00 0.00 0.00 91 1015.0
20260509155035 54 199 3.0 6.0 0.00 0.00 0.00 91 1015.0
20260509154546 53 212 3.0 9.0 0.00 0.00 0.00 91 1015.0
20260509154033 53 197 4.0 9.0 0.00 0.00 0.00 91 1015.0
20260509153535 53 223 2.0 8.0 0.00 0.00 0.00 92 1014.9
20260509153049 53 210 4.0 9.0 0.00 0.00 0.00 91 1014.8
20260509152537 53 217 4.0 9.0 0.00 0.00 0.00 91 1014.8
20260509152038 53 205 3.0 7.0 0.00 0.00 0.00 91 1014.9
20260509151555 53 182 3.0 7.0 0.00 0.00 0.00 91 1014.8
20260509151041 53 205 3.0 7.0 0.00 0.00 0.00 91 1014.9
20260509150538 53 224 3.0 7.0 0.00 0.00 0.00 91 1014.8
20260509150050 53 231 3.0 7.0 0.00 0.00 0.00 91 1014.9
20260509145538 53 248 3.0 7.0 0.00 0.00 0.00 91 1014.8
20260509145039 53 215 3.0 5.0 0.00 0.00 0.00 91 1014.8
20260509144553 53 224 3.0 5.0 0.00 0.00 0.00 91 1014.8
20260509144041 53 225 3.0 5.0 0.00 0.00 0.00 91 1014.7
20260509143538 53 240 2.0 5.0 0.00 0.00 0.00 91 1014.7
20260509143049 53 220 2.0 5.0 0.00 0.00 0.00 91 1014.6
20260509142537 53 240 2.0 6.0 0.00 0.00 0.00 91 1014.6
20260509142040 53 198 3.0 6.0 0.00 0.00 0.00 91 1014.6
20260509141601 53 244 4.0 6.0 0.00 0.00 0.00 91 1014.5
20260509141043 53 241 3.0 7.0 0.00 0.00 0.00 92 1014.4
20260509140536 53 225 2.0 7.0 0.00 0.00 0.00 91 1014.4
20260509140059 53 220 3.0 7.0 0.00 0.00 0.00 92 1014.4
20260509135537 53 219 2.0 5.0 0.00 0.00 0.00 92 1014.5
20260509135038 53 219 3.0 5.0 0.00 0.00 0.00 92 1014.4
20260509134551 53 204 3.0 5.0 0.00 0.00 0.00 92 1014.4
20260509134037 53 227 2.0 4.0 0.00 0.00 0.00 92 1014.4
20260509133538 53 221 2.0 6.0 0.00 0.00 0.00 92 1014.5
20260509133046 53 230 2.0 6.0 0.00 0.00 0.00 92 1014.4
20260509132538 53 240 3.0 7.0 0.00 0.00 0.00 92 1014.4
20260509132038 53 225 3.0 7.0 0.00 0.00 0.00 92 1014.3
20260509131545 53 238 2.0 4.0 0.00 0.00 0.00 92 1014.3
20260509131038 53 228 2.0 5.0 0.00 0.00 0.00 92 1014.4
20260509130541 53 215 2.0 5.0 0.00 0.00 0.00 92 1014.3
20260509130051 53 225 2.0 5.0 0.00 0.00 0.00 92 1014.3
20260509125538 53 202 2.0 5.0 0.00 0.00 0.00 92 1014.2
20260509125038 53 225 2.0 5.0 0.00 0.00 0.00 92 1014.3
20260509124547 52 236 2.0 5.0 0.00 0.00 0.00 92 1014.2
20260509124037 53 211 3.0 5.0 0.00 0.00 0.00 92 1014.2
20260509123537 52 218 3.0 6.0 0.00 0.00 0.00 92 1014.2
20260509123057 52 243 2.0 6.0 0.00 0.00 0.00 92 1014.3
20260509122537 52 235 3.0 6.0 0.00 0.00 0.00 92 1014.2
20260509122038 52 198 2.0 5.0 0.00 0.00 0.00 92 1014.2
20260509121552 52 213 3.0 5.0 0.00 0.00 0.00 92 1014.3
20260509121038 52 242 2.0 6.0 0.00 0.00 0.00 92 1014.3
20260509120538 52 203 3.0 6.0 0.00 0.00 0.00 92 1014.2
20260509120045 52 197 2.0 5.0 0.00 0.00 0.00 92 1014.2
20260509115537 52 211 3.0 5.0 0.00 0.00 0.00 92 1014.2
20260509115037 52 212 2.0 4.0 0.00 0.00 0.00 91 1014.3
20260509114544 52 229 2.0 4.0 0.00 0.00 0.00 91 1014.4
20260509114038 53 234 2.0 4.0 0.00 0.00 0.00 92 1014.3
20260509113538 52 229 1.0 5.0 0.00 0.00 0.00 92 1014.4
20260509113100 52 241 1.0 5.0 0.00 0.00 0.00 92 1014.5
20260509112537 52 244 2.0 5.0 0.00 0.00 0.00 92 1014.5
20260509112037 53 233 2.0 4.0 0.00 0.00 0.00 92 1014.5
20260509111555 53 238 1.0 4.0 0.00 0.00 0.00 92 1014.5
20260509111037 52 238 2.0 4.0 0.00 0.00 0.00 92 1014.5
20260509110540 52 232 2.0 5.0 0.00 0.00 0.00 91 1014.4
20260509110040 52 236 2.0 5.0 0.00 0.00 0.00 91 1014.5
20260509105537 52 225 2.0 5.0 0.00 0.00 0.00 91 1014.5
20260509105037 52 242 2.0 5.0 0.00 0.00 0.00 91 1014.5
20260509104552 52 232 2.0 5.0 0.00 0.00 0.00 91 1014.5
20260509104037 52 236 2.0 5.0 0.00 0.00 0.00 91 1014.5
20260509103536 52 225 2.0 3.0 0.00 0.00 0.00 91 1014.6
20260509103054 52 270 2.0 5.0 0.00 0.00 0.00 91 1014.6
20260509102538 52 270 1.0 6.0 0.00 0.00 0.00 91 1014.6
20260509102038 52 270 2.0 6.0 0.00 0.00 0.00 91 1014.6
20260509101544 52 244 1.0 3.0 0.00 0.00 0.00 91 1014.6
20260509101038 52 0 1.0 4.0 0.00 0.00 0.00 91 1014.6
20260509100537 52 275 1.0 4.0 0.00 0.00 0.00 91 1014.7
20260509095537 52 244 2.0 4.0 0.00 0.00 0.00 91 1014.7
20260509095040 52 229 1.0 3.0 0.00 0.00 0.00 91 1014.6
20260509094554 52 268 1.0 4.0 0.00 0.00 0.00 91 1014.7
20260509094038 53 290 1.0 4.0 0.00 0.00 0.00 91 1014.7
20260509093537 53 257 1.0 4.0 0.00 0.00 0.00 91 1014.9
20260509093047 53 274 1.0 4.0 0.00 0.00 0.00 91 1014.9
20260509092539 53 239 2.0 4.0 0.00 0.00 0.00 91 1014.9
20260509092037 53 237 1.0 4.0 0.00 0.00 0.00 90 1015.0
20260509091557 53 238 2.0 5.0 0.00 0.00 0.00 90 1014.9
20260509091038 53 231 2.0 5.0 0.00 0.00 0.00 90 1014.9
20260509090537 53 232 2.0 4.0 0.00 0.00 0.00 90 1014.9
20260509090045 53 227 2.0 4.0 0.00 0.00 0.00 90 1014.9
20260509085537 53 0 1.0 3.0 0.00 0.00 0.00 91 1014.9
20260509085039 53 237 1.0 3.0 0.00 0.00 0.00 90 1014.9
20260509084546 53 254 1.0 3.0 0.00 0.00 0.00 91 1015.0
20260509084040 53 254 1.0 3.0 0.00 0.00 0.00 91 1015.0
20260509083539 53 261 1.0 3.0 0.00 0.00 0.00 90 1015.1
20260509083045 53 286 1.0 6.0 0.00 0.00 0.00 90 1015.2
20260509082537 53 278 2.0 7.0 0.00 0.00 0.00 91 1015.3
20260509082037 53 298 2.0 7.0 0.00 0.00 0.00 90 1015.3
20260509081548 53 255 1.0 6.0 0.00 0.00 0.00 90 1015.3
20260509081037 53 275 2.0 7.0 0.00 0.00 0.00 90 1015.3
20260509080537 53 270 2.0 7.0 0.00 0.00 0.00 90 1015.3
20260509080051 53 284 3.0 7.0 0.00 0.00 0.00 90 1015.4
20260509075537 53 284 2.0 7.0 0.00 0.00 0.00 90 1015.4
20260509075037 53 311 2.0 6.0 0.00 0.00 0.00 90 1015.6
20260509074546 53 306 2.0 6.0 0.00 0.00 0.00 90 1015.6
20260509074036 53 275 2.0 6.0 0.00 0.00 0.00 90 1015.6
20260509073536 53 277 2.0 6.0 0.00 0.00 0.00 90 1015.5
20260509073048 53 243 2.0 6.0 0.00 0.00 0.00 90 1015.6
20260509072539 53 252 2.0 4.0 0.00 0.00 0.00 91 1015.7
20260509072037 53 250 2.0 7.0 0.00 0.00 0.00 90 1015.7
20260509071547 53 242 2.0 7.0 0.00 0.00 0.00 90 1015.7
20260509071037 53 269 1.0 4.0 0.00 0.00 0.00 91 1015.7
20260509070539 53 260 1.0 4.0 0.00 0.00 0.00 90 1015.8
20260509070051 53 262 2.0 7.0 0.00 0.00 0.00 91 1015.8
20260509065537 53 238 2.0 7.0 0.00 0.00 0.00 91 1015.9
20260509065037 53 288 3.0 5.0 0.00 0.00 0.00 91 1015.9
20260509064547 53 227 2.0 5.0 0.00 0.00 0.00 91 1015.9
20260509064037 53 242 2.0 5.0 0.00 0.00 0.00 91 1015.9
20260509063537 53 242 2.0 5.0 0.00 0.00 0.00 91 1015.9
20260509063049 53 238 2.0 5.0 0.00 0.00 0.00 91 1016.0
20260509062537 53 244 2.0 5.0 0.00 0.00 0.00 91 1016.0
20260509062037 53 248 2.0 5.0 0.00 0.00 0.00 91 1016.0
20260509061601 53 250 2.0 5.0 0.00 0.00 0.00 91 1016.1
20260509061036 53 239 2.0 5.0 0.00 0.00 0.00 91 1016.0
20260509060537 53 234 3.0 5.0 0.00 0.00 0.00 90 1016.1
20260509060044 53 244 3.0 5.0 0.00 0.00 0.00 91 1016.1
20260509055542 53 235 2.0 7.0 0.00 0.00 0.00 91 1016.2
20260509055037 53 240 3.0 7.0 0.00 0.00 0.00 90 1016.1
20260509054551 53 219 2.0 6.0 0.00 0.00 0.00 90 1016.1
20260509054037 53 239 3.0 6.0 0.00 0.00 0.00 90 1016.2
20260509053537 53 234 3.0 6.0 0.00 0.00 0.00 90 1016.1
20260509053055 53 242 2.0 5.0 0.00 0.00 0.00 90 1016.1
20260509052537 53 234 2.0 5.0 0.00 0.00 0.00 90 1016.0
20260509052036 53 225 3.0 5.0 0.00 0.00 0.00 90 1016.0
20260509051550 53 234 2.0 5.0 0.00 0.00 0.00 90 1016.0
20260509051040 53 231 2.0 5.0 0.00 0.00 0.00 90 1016.0
20260509050537 53 240 3.0 5.0 0.00 0.00 0.00 90 1016.0
20260509050044 53 245 2.0 5.0 0.00 0.00 0.00 90 1016.1
20260509045537 53 238 2.0 5.0 0.00 0.00 0.00 90 1016.0
20260509045037 53 242 2.0 5.0 0.00 0.00 0.00 90 1016.0
20260509044549 53 232 2.0 5.0 0.00 0.00 0.00 90 1015.9
20260509044037 53 236 2.0 5.0 0.00 0.00 0.00 90 1015.9
20260509043536 53 239 3.0 5.0 0.00 0.00 0.00 90 1016.0
20260509043047 53 214 2.0 5.0 0.00 0.00 0.00 90 1016.0
20260509042536 53 238 2.0 5.0 0.00 0.00 0.00 90 1016.0
20260509042039 53 228 3.0 5.0 0.00 0.00 0.00 90 1016.0
20260509041546 53 232 2.0 5.0 0.00 0.00 0.00 90 1016.0
20260509041037 53 252 3.0 5.0 0.00 0.00 0.00 90 1015.9
20260509040536 53 240 3.0 5.0 0.00 0.00 0.00 90 1015.8
20260509040044 53 239 2.0 5.0 0.00 0.00 0.00 90 1015.9
20260509035537 53 215 2.0 5.0 0.00 0.00 0.00 90 1015.8
20260509035037 53 221 3.0 5.0 0.00 0.00 0.00 90 1015.8
20260509034547 53 230 3.0 5.0 0.00 0.00 0.00 90 1015.8
20260509034036 53 244 2.0 5.0 0.00 0.00 0.00 90 1015.7
20260509033536 53 242 3.0 7.0 0.00 0.00 0.00 90 1015.8
20260509033043 53 235 2.0 7.0 0.00 0.00 0.00 90 1015.8
20260509032537 53 233 3.0 6.0 0.00 0.00 0.00 90 1015.7
20260509032036 53 257 3.0 8.0 0.00 0.00 0.00 89 1015.7
20260509031543 53 265 3.0 8.0 0.00 0.00 0.00 89 1015.8
20260509031036 53 265 3.0 6.0 0.00 0.00 0.00 89 1015.8
20260509030537 53 243 3.0 8.0 0.00 0.00 0.00 89 1015.7
20260509030048 53 221 3.0 8.0 0.00 0.00 0.00 89 1015.8
20260509025536 53 243 3.0 7.0 0.00 0.00 0.00 89 1015.7
20260509025037 53 229 3.0 7.0 0.00 0.00 0.00 89 1015.7
20260509024545 53 248 3.0 7.0 0.00 0.00 0.00 89 1015.7
20260509024037 53 271 3.0 7.0 0.00 0.00 0.00 89 1015.8
20260509023537 53 254 3.0 7.0 0.00 0.00 0.00 88 1015.8
20260509023048 53 263 2.0 7.0 0.00 0.00 0.00 88 1015.7
20260509022536 53 249 3.0 7.0 0.00 0.00 0.00 88 1015.7
20260509022037 53 227 3.0 7.0 0.00 0.00 0.00 88 1015.7
20260509021551 53 236 3.0 7.0 0.00 0.00 0.00 88 1015.7
20260509021034 53 261 3.0 7.0 0.00 0.00 0.00 88 1015.7
20260509020534 54 242 3.0 8.0 0.00 0.00 0.00 88 1015.6
20260509020053 54 245 4.0 8.0 0.00 0.00 0.00 88 1015.7
20260509015535 54 244 2.0 6.0 0.00 0.00 0.00 88 1015.7
20260509015037 54 234 2.0 7.0 0.00 0.00 0.00 88 1015.7
20260509014549 54 267 3.0 7.0 0.00 0.00 0.00 87 1015.7
20260509014036 54 271 3.0 6.0 0.00 0.00 0.00 88 1015.8
20260509013534 54 277 2.0 6.0 0.00 0.00 0.00 88 1015.9
20260509013051 54 247 3.0 9.0 0.00 0.00 0.00 87 1015.9
20260509012535 54 278 3.0 9.0 0.00 0.00 0.00 87 1015.9
20260509012035 54 271 3.0 9.0 0.00 0.00 0.00 87 1015.9
20260509011555 54 199 3.0 8.0 0.00 0.00 0.00 87 1015.9
20260509011034 54 261 3.0 8.0 0.00 0.00 0.00 87 1016.0
20260509010533 54 246 3.0 9.0 0.00 0.00 0.00 87 1016.0
20260509010052 54 259 3.0 9.0 0.00 0.00 0.00 87 1016.0
20260509005537 54 256 3.0 8.0 0.00 0.00 0.00 87 1016.0
20260509005033 54 272 3.0 9.0 0.00 0.00 0.00 87 1016.1
20260509004550 54 259 4.0 9.0 0.00 0.00 0.00 87 1016.1
20260509004036 54 285 3.0 9.0 0.00 0.00 0.00 87 1016.2
20260509003537 54 284 3.0 9.0 0.00 0.00 0.00 87 1016.3
20260509003043 54 250 3.0 9.0 0.00 0.00 0.00 87 1016.4
20260509002537 54 248 3.0 9.0 0.00 0.00 0.00 87 1016.3
20260509002033 54 254 3.0 9.0 0.00 0.00 0.00 87 1016.4
20260509001551 54 241 2.0 8.0 0.00 0.00 0.00 88 1016.4
20260509001038 54 246 2.0 9.0 0.00 0.00 0.00 87 1016.5
20260509000537 54 271 3.0 9.0 0.00 0.00 0.00 87 1016.5
20260509000049 54 256 3.0 8.0 0.00 0.00 0.00 87 1016.5
20260508235534 54 262 3.0 8.0 0.00 0.00 0.00 87 1016.5
20260508235037 54 292 4.0 8.0 0.00 0.00 0.00 87 1016.5
20260508234547 54 211 3.0 8.0 0.00 0.00 0.00 87 1016.5
20260508234033 54 272 3.0 9.0 0.00 0.00 0.00 87 1016.6
20260508233538 54 288 3.0 9.0 0.00 0.00 0.00 87 1016.7
20260508233042 54 296 3.0 9.0 0.00 0.00 0.00 87 1016.7
20260508232533 54 264 3.0 10.0 0.00 0.00 0.00 87 1016.7
20260508232034 54 271 3.0 10.0 0.00 0.00 0.00 86 1016.8
20260508231611 55 284 3.0 9.0 0.00 0.00 0.00 87 1016.9
20260508231033 55 257 3.0 9.0 0.00 0.00 0.00 87 1017.0
20260508230537 55 261 4.0 9.0 0.00 0.00 0.00 86 1017.0
20260508230055 55 263 3.0 9.0 0.00 0.00 0.00 86 1017.1
20260508225536 54 271 4.0 10.0 0.00 0.00 0.00 86 1017.2
20260508225037 55 246 3.0 10.0 0.00 0.00 0.00 86 1017.2
20260508224541 54 277 3.0 10.0 0.00 0.00 0.00 87 1017.3
20260508224037 55 320 3.0 10.0 0.00 0.00 0.00 87 1017.3
20260508223537 54 263 4.0 10.0 0.00 0.00 0.00 87 1017.4
20260508223048 55 277 4.0 9.0 0.00 0.00 0.00 87 1017.5
20260508222537 54 283 4.0 9.0 0.00 0.00 0.00 87 1017.5
20260508222034 54 249 3.0 9.0 0.00 0.00 0.00 86 1017.6
20260508221544 54 231 3.0 8.0 0.00 0.00 0.00 86 1017.5
20260508221037 54 269 3.0 7.0 0.00 0.00 0.00 86 1017.6
20260508220536 55 236 3.0 10.0 0.00 0.00 0.00 86 1017.6
20260508220045 54 257 3.0 10.0 0.00 0.00 0.00 86 1017.7
20260508215536 54 265 3.0 8.0 0.00 0.00 0.00 86 1017.8
20260508215036 55 248 4.0 9.0 0.00 0.00 0.00 86 1017.8
20260508214617 55 265 4.0 9.0 0.00 0.00 0.00 86 1017.8
20260508214037 55 279 3.0 8.0 0.00 0.00 0.00 86 1017.9
20260508213536 55 244 3.0 8.0 0.00 0.00 0.00 86 1018.0
20260508213047 54 248 3.0 7.0 0.00 0.00 0.00 86 1017.9
20260508212535 55 248 2.0 7.0 0.00 0.00 0.00 86 1018.0
20260508212040 55 238 3.0 9.0 0.00 0.00 0.00 86 1018.0
20260508211542 55 252 3.0 9.0 0.00 0.00 0.00 86 1018.0
20260508211036 55 268 4.0 9.0 0.00 0.00 0.00 86 1018.1
20260508210538 55 277 3.0 7.0 0.00 0.00 0.00 86 1018.1
20260508210041 54 340 3.0 7.0 0.00 0.00 0.00 86 1018.2
20260508205536 54 237 3.0 10.0 0.00 0.00 0.00 86 1018.2
20260508205037 54 255 4.0 10.0 0.00 0.00 0.00 86 1018.2
20260508204544 54 260 3.0 9.0 0.00 0.00 0.00 86 1018.2
20260508204036 54 304 3.0 9.0 0.00 0.00 0.00 86 1018.2
20260508203539 54 273 3.0 9.0 0.00 0.00 0.00 87 1018.2
20260508203042 54 253 3.0 8.0 0.00 0.00 0.00 87 1018.4
20260508202539 54 250 3.0 7.0 0.00 0.00 0.00 87 1018.4
20260508202038 54 281 4.0 8.0 0.00 0.00 0.00 87 1018.4
20260508201552 54 293 4.0 10.0 0.00 0.00 0.00 87 1018.4
20260508201038 54 263 4.0 10.0 0.00 0.00 0.00 87 1018.4
20260508200538 54 276 3.0 9.0 0.00 0.00 0.00 87 1018.3
20260508200053 54 283 3.0 9.0 0.00 0.00 0.00 87 1018.3
20260508195538 54 290 4.0 9.0 0.00 0.00 0.00 87 1018.4
20260508195039 54 301 2.0 10.0 0.00 0.00 0.00 87 1018.2
20260508194553 54 259 3.0 10.0 0.00 0.00 0.00 88 1018.3
20260508194039 54 265 4.0 10.0 0.00 0.00 0.00 88 1018.4
20260508193542 54 246 3.0 9.0 0.00 0.00 0.00 88 1018.4
20260508193123 54 201 3.0 9.0 0.00 0.00 0.00 88 1018.4
20260508192539 53 263 3.0 9.0 0.00 0.00 0.00 88 1018.4
20260508192039 54 298 3.0 8.0 0.00 0.00 0.00 89 1018.4
20260508191549 54 292 3.0 8.0 0.00 0.00 0.00 89 1018.5
20260508191037 54 249 3.0 7.0 0.00 0.00 0.00 89 1018.5
20260508190538 53 261 2.0 7.0 0.00 0.00 0.00 89 1018.6
20260508190053 53 250 2.0 7.0 0.00 0.00 0.00 89 1018.6
20260508185540 53 271 3.0 7.0 0.00 0.00 0.00 90 1018.6
20260508185039 53 262 2.0 6.0 0.00 0.00 0.00 90 1018.5
20260508184544 53 281 3.0 8.0 0.00 0.00 0.00 90 1018.5
20260508184038 53 254 2.0 8.0 0.00 0.00 0.00 91 1018.5
20260508183538 53 278 3.0 8.0 0.00 0.00 0.00 91 1018.5
20260508183043 53 265 4.0 8.0 0.00 0.00 0.00 91 1018.6
20260508182538 53 284 2.0 8.0 0.00 0.00 0.00 91 1018.6
20260508182038 53 276 2.0 10.0 0.00 0.00 0.00 91 1018.7
20260508181553 53 255 2.0 10.0 0.00 0.00 0.00 91 1018.7
20260508181038 53 274 4.0 10.0 0.00 0.00 0.00 91 1018.7
20260508180539 53 271 4.0 9.0 0.00 0.00 0.00 91 1018.6
20260508180105 53 263 3.0 8.0 0.00 0.00 0.00 91 1018.6
20260508175538 53 250 2.0 10.0 0.00 0.00 0.00 91 1018.6
20260508175039 53 279 3.0 10.0 0.00 0.00 0.00 91 1018.7
20260508174557 53 284 2.0 9.0 0.00 0.00 0.00 91 1018.7
20260508174038 53 238 3.0 9.0 0.00 0.00 0.00 91 1018.6
20260508173542 53 244 3.0 9.0 0.00 0.00 0.00 91 1018.6